#timestamp,LO_Frequency,Hit,StdDev 
1598842815.4,286047006.9,N
1598842835.3,286047007.5,N
1598842855.1,286046999.8,N
1598842875.8,286046997.2,N
1598842895.7,286046996.4,N
1598842915.5,286046992.0,N
1598842935.4,286046994.3,N
1598842955.2,286046996.4,N
1598842975.0,286046998.0,N
1598842975.9,286046998.0,N
1598842995.8,286046999.0,N
1598843015.6,286047001.6,N
1598843035.4,286047002.9,N
1598843055.3,286047006.6,N
1598843075.1,286047009.2,N
1598843095.9,286047008.5,N
1598843115.7,286047000.2,N
1598843135.5,286046997.8,N
1598843155.4,286047001.1,N
1598843175.2,286047004.0,N
1598843195.1,286047001.6,N
1598843196.0,286047001.6,N
1598843215.8,286047003.8,N
1598843235.6,286047008.2,N
1598843255.5,286047006.2,N
1598843275.3,286047004.4,N
1598843295.1,286046996.4,N
1598843315.9,286046996.3,N
1598843335.7,286047000.4,N
1598843355.6,286047000.5,N
1598843375.4,286046995.3,N
1598843395.2,286046998.7,N
1598843415.1,286047011.9,N
1598843416.0,286046998.8,N
1598843435.8,286046998.6,N
1598843455.6,286047002.1,N
1598843475.5,286047003.5,N
1598843495.3,286046999.9,N
1598843515.2,286047001.0,N
1598843535.9,286046996.1,N
1598843555.7,286047001.2,N
1598843575.6,286047003.0,N
1598843595.4,286047011.9,N
1598843615.3,286047013.2,N
1598843635.1,286047010.1,N
1598843636.0,286047010.1,N
1598843655.8,286047011.9,N
1598843675.7,286047008.9,N
1598843695.5,286047005.8,N
1598843715.3,286047002.7,N
1598843735.2,286046997.0,N
1598843755.0,286046995.2,N
1598843755.9,286046995.2,N
1598843775.8,286046998.1,N
1598843795.6,286047004.5,N
1598843815.4,286047008.0,N
1598843835.3,286047004.9,N
1598843855.1,286047008.3,N
1598843875.9,286047013.0,N
1598843895.7,286047013.2,N
1598843915.5,286047009.3,N
1598843935.4,286047003.5,N
1598843955.2,286047006.2,N
1598843975.0,286047011.2,N
1598843975.9,286047011.2,N
1598843995.8,286047009.1,N
1598844015.6,286047002.1,N
1598844035.5,286047001.8,N
1598844055.3,286047010.4,N
1598844075.1,286047014.3,N
1598844095.9,286047009.7,N
1598844115.7,286047006.3,N
1598844135.6,286047008.4,N
1598844155.4,286047017.2,Y
1598844175.2,286047012.3,P
1598844195.1,286047012.4,P
1598844196.0,286047012.4,P
1598844215.8,286047004.9,N
1598844235.6,286047008.6,N
1598844255.5,286047005.3,N
1598844275.3,286047000.3,N
1598844295.2,286047000.0,N
1598844315.9,286047003.1,N
1598844335.7,286047009.7,N
1598844355.6,286047008.8,N
1598844375.4,286047002.6,N
1598844395.2,286047002.8,N
1598844415.1,286046998.1,N
1598844416.0,286046998.1,N
1598844435.8,286047005.3,N
1598844455.7,286047010.2,N
1598844475.5,286047010.9,N
1598844495.3,286047007.4,N
1598844515.2,286047004.5,N
1598844535.0,286047002.4,N
1598844535.9,286047002.4,N
1598844555.8,286047005.9,N
1598844575.6,286047001.7,N
1598844595.4,286046999.8,N
1598844615.3,286047002.0,N
1598844635.1,286047002.5,N
1598844655.8,286046998.3,N
1598844675.7,286047001.1,N
1598844695.5,286046995.8,N
1598844715.4,286047000.4,N
1598844735.2,286047004.3,N
1598844755.0,286047012.4,Y
1598844755.9,286047012.4,P
1598844775.8,286047003.2,N
1598844795.6,286046996.7,N
1598844815.4,286046998.1,N
1598844835.3,286047004.4,N
1598844855.1,286047005.8,N
1598844875.9,286047005.5,N
1598844895.7,286047005.6,N
1598844915.5,286046998.7,N
1598844935.4,286046994.9,N
1598844955.2,286047007.4,N
1598844975.1,286047016.1,Y
1598844976.0,286047016.1,P
1598844995.8,286047014.8,N
1598845015.7,286047017.0,N
1598845035.5,286047014.8,N
1598845055.3,286047014.7,N
1598845075.2,286047013.6,N
1598845095.0,286047006.2,N
1598845095.9,286047006.2,N
1598845115.7,286047001.3,N
1598845135.6,286047001.7,N
1598845155.4,286047006.6,N
1598845175.3,286047009.6,N
1598845195.1,286047006.6,N
1598845196.0,286047006.6,N
1598845215.8,286047003.4,N
1598845235.7,286047018.2,Y
1598845255.5,286047012.2,P
1598845275.4,286047006.5,P
1598845295.2,286047002.1,N
1598845315.0,286047002.7,N
1598845315.9,286047002.7,N
1598845335.8,286046992.2,N
1598845355.6,286046996.7,N
1598845375.4,286046999.6,N
1598845395.3,286046998.1,N
1598845415.1,286047000.4,N
1598845435.9,286046995.5,N
1598845455.7,286046996.7,N
1598845475.5,286046991.8,N
1598845495.4,286046992.9,N
1598845515.2,286046992.7,N
1598845535.0,286046990.2,N
1598845535.9,286046990.2,N
1598845555.8,286046993.7,N
1598845575.6,286047002.3,N
1598845595.5,286047004.2,N
1598845615.3,286047000.1,N
1598845635.1,286047001.9,N
1598845655.9,286047001.4,N
1598845675.7,286047004.0,N
1598845695.6,286047010.8,N
1598845715.4,286047009.5,N
1598845735.2,286047011.7,N
1598845755.1,286047013.7,N
1598845756.0,286047013.7,N
1598845775.8,286047009.6,N
1598845795.6,286047009.2,N
1598845815.5,286047006.9,N
1598845835.3,286047006.3,N
1598845855.2,286047011.8,N
1598845875.9,286047009.7,N
1598845895.7,286047005.5,N
1598845915.6,286047001.5,N
1598845935.4,286047003.1,N
1598845955.2,286046999.9,N
1598845975.1,286047001.3,N
1598845976.0,286047001.3,N
1598845995.8,286047005.5,N
1598846015.7,286047001.6,N
1598846035.5,286046996.7,N
1598846055.3,286046995.0,N
1598846075.2,286047005.3,N
1598846095.0,286047009.5,N
1598846095.9,286047009.5,N
1598846115.8,286047010.4,N
1598846135.6,286047010.5,N
1598846155.4,286047013.1,N
1598846175.3,286047014.2,N
1598846195.1,286047012.6,N
1598846215.8,286047013.4,N
1598846235.7,286047012.0,N
1598846255.5,286047006.8,N
1598846275.4,286047004.2,N
1598846295.2,286047001.7,N
1598846315.0,286047005.1,N
1598846315.9,286047005.1,N
1598846335.8,286047009.6,N
1598846355.6,286047008.7,N
1598846375.4,286047002.1,N
1598846395.3,286047004.2,N
